www.pogodaiklimat.ru
Время
(UTC), дата
21 13.01
00 14.01
03 14.01
06 14.01
09 14.01
12 14.01
15 14.01
18 14.01
21 14.01
00 15.01
03 15.01
06 15.01
09 15.01
12 15.01
15 15.01
18 15.01
21 15.01
00 16.01
03 16.01
06 16.01
09 16.01
12 16.01
15 16.01
18 16.01
21 16.01
00 17.01
03 17.01
06 17.01
09 17.01
12 17.01
15 17.01
18 17.01
21 17.01
00 18.01
03 18.01
06 18.01
09 18.01
12 18.01
15 18.01
18 18.01
21 18.01
00 19.01
03 19.01
06 19.01
09 19.01
12 19.01
15 19.01
18 19.01
21 19.01
00 20.01
03 20.01
06 20.01
09 20.01
12 20.01
15 20.01
Ветер
(напр.,м/с)
Видим. Явления Облачность Т
(С)
Тd
(С)
f
(%)
Тe
(С)
Тes
(С)
Комфортность P
(гПа)
Po
(гПа)
Тmin
(С)
Tmax
(С)
R
(мм)
R24
(мм)
S
(см)
Ю 2 10 км 10/0
[Cs]
-26.0 -29.1 75 -33 -33 опасность
обморожения
1037.2 1011.2
ЮЗ 2 10 км 4/0
[Cs]
-29.6 -32.9 73 -37 -37 опасность
обморожения
1040.3 1013.8 -30.4 45
Ю 1 10 км в посл. час снег 10/0
[As op]
-26.3 -29.3 76 -30 -30 очень
холодно
1042.8 1016.6
Ю 2 10 км {снег} 10/0
[As op]
-23.4 -26.6 75 -30 -29 очень
холодно
1044.7 1018.7
Ю 2 4000 м слаб. снег 10/0
[As op]
-21.0 -24.0 77 -27 -27 холодно 1045.8 1020.1
Ю 1 4000 м слаб. снег 10/0
[As op]
-20.5 -23.2 79 -24 -24 прохладно 1047.5 1021.8 -20.0 0.6
ЮЗ 2 4000 м слаб. снег 10/0
[As op]
-20.0 -22.9 78 -26 -26 холодно 1049.0 1023.3
ЮЗ 2 10 км {снег} 10/0
[As op]
-20.1 -23.0 78 -26 -26 прохладно 1049.9 1024.1
Ю 2 10 км 10/0
[As op]
-19.9 -22.7 78 -26 -26 прохладно 1050.6 1024.8
Ю 1 4000 м слаб. снег 10/0
[As op]
-20.1 -22.6 80 -23 -23 по сезону 1051.3 1025.5 -20.5 0.2 45
Ю 1 4000 м слаб. снег 10/0
[As op]
-19.7 -22.2 80 -23 -23 по сезону 1052.1 1026.3
ЮВ 1 4000 м слаб. снег 10/10 600 м
[Sc]
-18.2 -21.6 75 -21 -21 по сезону 1052.1 1026.5
СВ 1 10 км в посл. час снег 9/9 600 м
[Sc]
-17.0 -20.8 72 -20 -20 по сезону 1050.9 1025.5
штиль 0 10 км {снег} ясно -23.2 -25.4 82 -23 -23 прохладно 1051.1 1025.0 -16.7 0.0
ЮВ 1 10 км ясно -24.9 -27.6 78 -28 -28 холодно 1049.3 1023.0
В 1 10 км ясно -25.3 -28.1 77 -29 -29 холодно 1046.6 1020.4
В 1 10 км ясно -26.5 -29.5 76 -30 -30 очень
холодно
1044.9 1018.7
штиль 0 10 км в посл. час снег 10/0
[As op]
-25.6 -28.4 77 -26 -26 холодно 1042.5 1016.3 -28.0 0.0 42
ЮВ 2 10 км 10/0
[As op]
-21.5 -24.1 79 -28 -28 очень
холодно
1039.4 1013.8
ЮВ 2 10 км 10/0
[Cs]
-18.5 -21.9 75 -24 -23 холодно 1036.7 1011.5
В 2 10 км 9/0
[Ac trans Ci fib]
-15.4 -19.9 68 -20 -20 по сезону 1032.9 1008.0
В 1 10 км 8/8 600 м
[Sc]
-15.3 -18.8 75 -18 -18 по сезону 1030.3 1005.5 -14.3
штиль 0 10 км ясно -16.6 -19.1 81 -17 -17 по сезону 1027.1 1002.3
штиль 0 10 км ясно -19.4 -21.4 84 -19 -19 по сезону 1023.8 998.8
ЮВ 1 10 км ясно -21.3 -23.5 82 -24 -24 прохладно 1020.7 995.5
штиль 0 10 км ясно -18.0 -20.0 84 -18 -18 по сезону 1017.4 992.6 -22.3 42
ЮВ 2 10 км 8/0
[Ac trans Ci fib]
-18.8 -20.7 85 -24 -24 холодно 1015.6 990.8
Ю 3 10 км 8/0
[Ci fib]
-8.9 -15.2 60 -15 -13 по сезону 1014.4 990.6
ЮЗ 5 10 км пыльная буря 10/0
[Cs]
-5.6 -10.3 69 -13 -12 по сезону 1015.9 992.3
ЮЗ 4
{10}
10 км позёмок 10/0
[As op]
-6.7 -9.1 83 -13 -13 по сезону 1019.5 995.8 -5.2
ЮЗ 5
{10}
4000 м слаб. снег {метель} 10/0
[As op]
-7.5 -9.8 84 -15 -15 по сезону 1021.5 997.6
Ю 3 10 км {снег, метель} 10/0
[As op]
-7.5 -9.4 86 -13 -13 по сезону 1020.6 996.7
ЮВ 1 10 км 10/0
[As op]
-7.8 -9.2 90 -10 -10 тепло 1016.9 993.1
Ю 3 10 км позёмок 10/0
[As op]
-8.1 -12.7 69 -14 -14 по сезону 1014.8 991.1 -8.9 0.0 40
Ю 3 10 км 10/0
[As op]
-6.2 -12.4 61 -11 -11 по сезону 1010.6 987.1
ЮЗ 5
{10}
10 км позёмок 10/0
[As op]
-5.0 -10.1 67 -12 -12 по сезону 1010.7 987.3
ЮЗ 5
{11}
10 км позёмок 10/0
[As op]
-5.5 -8.6 79 -13 -13 по сезону 1011.0 987.6
З 3 10 км {ливн. снег, метель} 9/9 600 м
[Cb cap]
-7.4 -10.8 77 -13 -13 по сезону 1013.5 989.8 -4.1 0.0
ЮЗ 3 10 км ясно -11.9 -14.5 81 -18 -18 по сезону 1015.2 991.1
ЮЗ 3 10 км ясно -13.9 -16.2 83 -20 -20 прохладно 1017.4 993.1
ЮЗ 4 10 км ясно -17.2 -19.0 86 -25 -25 очень
холодно
1019.4 994.7
ЮЗ 3 10 км ясно -21.1 -23.1 84 -29 -29 очень
холодно
1020.9 995.8 -21.1 35
ЮЗ 1 10 км 3/0
[Cs]
-24.2 -26.7 80 -28 -28 очень
холодно
1022.8 997.3 -24.6
ЮЗ 2 10 км 5/0
[Ci fib]
-17.1 -19.7 80 -22 -21 очень
холодно
1023.3 998.5
ЮЗ 2 10 км 3/0
[Ci fib]
-17.4 -20.6 76 -23 -22 очень
холодно
1023.3 998.5
ЮЗ 2 10 км ясно -20.8 -22.7 85 -27 -27 очень
холодно
1023.9 998.7 -16.3
штиль 0 10 км 3/0
[Cs]
-23.1 -25.2 83 -23 -23 очень
холодно
1025.1 999.7
З 1 10 км ясно -25.5 -28.0 79 -29 -29 очень
холодно
1026.6 1000.9
штиль 0 10 км ясно -26.8 -29.5 78 -27 -27 очень
холодно
1028.0 1002.1
штиль 0 10 км ясно -28.8 -32.1 73 -29 -29 холодно 1028.5 1002.4 -29.0 35
штиль 0 10 км 3/0
[Ci fib]
-30.5 -33.9 72 -31 -30 опасность
обморожения
1029.5 1003.1 -31.0
В 1 10 км 4/0
[Ci fib]
-23.5 -26.5 76 -27 -25 холодно 1029.2 1003.6
штиль 0 10 км 3/0
[Ci fib]
-22.1 -25.0 77 -22 -21 по сезону 1028.1 1002.7
СВ 1 10 км 3/0
[Ci fib]
-21.8 -24.3 80 -25 -25 прохладно 1027.0 1001.6 -20.7
СВ 2 10 км ясно -21.0 -23.8 78 -27 -27 холодно 1025.2 1000.0
Местоположение метеостанции Барнаул (Алтайский край, Россия): широта 53.43 долгота 83.52 высота над уровнем моря 185 м.
В архиве по умолчанию представлена погода в Барнауле за последнюю неделю. Архивные данные за месяц целиком и за предыдущие месяцы, начиная с января 2011 года, Вы можете получить, выбрав интересующий диапазон дат из раскрывающегося списка и нажав кнопку "Найти!".
*Определитесь, кто Вы:
Внимание! Время в таблицах - всемирное. Для получения местного времени необходимо прибавить поправку, которая равна 7 ч.
Смотрите также архив погоды в соседних городах и на ближайших метеорологических станциях:
Партнеры нашего сайта:      
Пояснения к столбцам:
  • Ветер - указаны скорость ветра в м/с - средняя за 10 мин, порывы в срок и между сроками (в фигурных скобках) и направление, откуда дует ветер: С - северный,
  • СВ - северо-восточный, В - восточный, ЮВ - юго-восточный, Ю - южный, ЮЗ - юго-западный, З - западный, СЗ - северо-западный.
  • Видимость - горизонтальная дальность видимости в метрах или километрах. При видимости от 1 до 10 км при отсутствии осадков обычно наблюдается дымка, при ухудшении видимости до 1 км и менее - туман. В сухую погоду видимость может ухудшаться дымом, пылью или мглою.
  • Явления - указаны атмосферные явления, наблюдавшиеся в срок или в последний час перед сроком; фигурными скобками обозначены явления, наблюдавшиеся между сроками (за 1-3 часа до срока); квадратными скобками обозначены град или гололедные отложения с указанием их диаметра в мм.
  • Облачность - указаны через наклонную черту общая и нижняя облачность в баллах и высота нижней границы облаков в метрах; квадратными скобками обозначены формы облаков: Ci - перистые, Cs - перисто-слоистые, Cc - перисто-кучевые, Ac - высококучевые, As - высокослоистые, Sc - слоисто-кучевые, Ns - слоисто-дождевые, Cu - кучевые, Cb - кучево-дождевые. Подробнее классификацию облаков см. в Атласе облаков (PDF).
  • T - Температура воздуха - температура, измеренная на высоте 2 м над землей.
  • Td - Температура точки росы - температура, при понижении до которой содержащийся в воздухе водяной пар достигнет насыщения.
  • f - Относительная влажность воздуха - влажноcть воздуха, измеренная на высоте 2 м над землей.
  • Te - Эффективная температура - температура, которую ощущает одетый по сезону человек в тени. Характеристика душности погоды. При расчете учитывается влияние влажности воздуха и скорости ветра на теплоощущения человека.
  • Tes - Эффективная температура на солнце - температура, которую ощущает человек, с поправкой на солнечный нагрев. Характеристика знойности погоды. Зависит от высоты солнца над горизонтом, облачности и скорости ветра. Ночью, в пасмурную погоду, а также при ветре 12 м/с и более поправка равна нулю.
  • P - Атмосферное давление - приведенное к уровню моря атмосферное давление.
  • Po - Атмосферное давление - измеренное на уровне метеостанции атмосферное давление.
  • Tmin - Минимальная температура - минимум температуры воздуха на высоте 2 м над землей.
  • Tmax - Максимальная температура - максимум температуры воздуха на высоте 2 м над землей.
  • R - Количество осадков - Количество выпавших осадков за период времени, мм. При наведении курсора мыши на число - период времени, за который выпало указанное количество осадков.
  • R24 - Количество осадков - Количество выпавших осадков за 24 часа, мм.
  • S - Снежный покров - Высота снежного покрова, см. При наведении курсора мыши на число - состояние снежного покрова и степень покрытия местности в баллах.